Les Templiers

Edition 2013

Les Templiers le 27 octobre 2013 - Millau - Course à Pied (trail, ultra) - 71 km

Autres épreuves en 2013 : Endurance Trail des Templiers, L'Intégrale des Causses, Trail du Viaduc, La Mona Lisa Trail, Marathon des Causses, La Templière, La VO2 Trail, Trail des Troubadours

Sport : Course à Pied (trail, ultra)
Date : Sunday 27 octobre 2013
Lieu : Millau (12 - Aveyron, Midi-Pyrénées )
Distance : 71 kms
Dénivelé : 3250 m
Heure départ : 06:15:00

Site Web

Autres éditions

Enregistré par serge - validé par eric41

Éditeur de la catégorie (Course à Pied (trail, ultra), Aveyron, 10/2013) : peky
Devenir éditeur

Détails

Site Web de la course : http://www.festivaldestempliers.com
Coordonnées organisateur : Tél : 0820 202 252
E-mail organisateur : organisation@vo2.fr
Course limitée à : 2500 coureurs
Matériel obligatoire/conseillé/fourni : matériel obligatoire : réserve d'eau 1,5 l, lampe frontale ou torche, sifflet, couverture de survie de taille adulte, coupe-vent de taille adulte, gants, bonnet, collant long de taille adulte, polaire de taille adulte.

Attention !!!

Il est recommandé de se renseigner auprès des organisateurs avant de se rendre au départ d'une course. Les erreurs et les changements de dernière minute sont rares, mais cela arrive. Kikouroù décline toute responsabilité en cas d'erreur.

Forum : 3 fils de discussion à propos de la course

247 récits de course

Photos / Vidéos

Il y a 8 galeries photos liées à cette course :

Voir les vidéos liées à cette course :

Carnet d'entrainement

Kikous ayant rentré cette course dans leur carnet :

Avis, notes, impressions

Il n'y a pas d'avis enregistré pour cette course.

Résultats complets

Afficher les 2049 coureurs et ajouter votre résultat perso automatiquement.

Résultat de 78 membres de Kikouroù

  • jibiji : 08:01:24, 71.000 km (8.84 km/h) (position: 32)
  • poursac-01 : 08:31:46, 71.000 km (8.32 km/h) (position: 54)
  • stephaneal59 : 08:58:41, 71.000 km (7.9 km/h) (position: 80)
  • boboss : 08:59:58, 71.000 km (7.88 km/h) (position: 87)
  • servotte-amouroux : 09:15:19, 71.000 km (7.67 km/h) (position: 108)
  • JM3D : 09:16:41, 71.000 km (7.65 km/h) (position: 112)
  • José MAILLET : 09:29:59, 71.000 km (7.47 km/h) (position: 134)
  • fredorak : 09:35:43, 71.000 km (7.39 km/h) (position: 144)
  • bruno12 : 09:38:28, 71.000 km (7.36 km/h) (position: 157)
  • Tofrunner : 09:46:32, 71.000 km (7.26 km/h) (position: 174)
  • nahu : 09:54:44, 71.000 km (7.16 km/h) (position: 195)
  • Gueguette : 10:01:09, 73 km (7.28 km/h) (position: 215)
  • Trimoreo : 10:13:19, 71 km (6.94 km/h) (position: 250)
  • michallet : 10:19:16, 71.000 km (6.87 km/h) (position: 266)
  • xavierfont : 10:27:49, 71.000 km (6.78 km/h) (position: 303)
  • Mathieu OLIVREAU : 10:29:48, 71.000 km (6.76 km/h) (position: 310)
  • _tibo_ : 10:33:37, 71.000 km (6.72 km/h) (position: 321)
  • tliarte : 10:49:36, 71.000 km (6.55 km/h) (position: 387)
  • chris favre : 10:52:00, 71 km (6.53 km/h) (position: 407)
  • jerome bertin : 11:03:20, 71.000 km (6.42 km/h) (position: 471)
  • oenotrailer49 : 11:05:53, 71.000 km (6.39 km/h) (position: 486)
  • Raideurjbp : 11:11:00, 71.000 km (6.34 km/h) (position: 519)
  • totolehero : 11:11:13, 71.000 km (6.34 km/h) (position: 520)
  • BDASI : 11:12:37, 71.000 km (6.33 km/h) (position: 527)
  • Mazout : 11:16:04, 71.000 km (6.3 km/h) (position: 553)
  • toyostos : 11:19:59, 71.000 km (6.26 km/h) (position: 579)
  • olivierstora : 11:23:30, 71.000 km (6.23 km/h) (position: 591)
  • Ritonad : 11:25:33, 71.000 km (6.21 km/h) (position: 601)
  • NicRib : 11:33:30, 71.000 km (6.14 km/h) (position: 643)
  • Sébastien Roy 04 : 11:40:34, 71.000 km (6.08 km/h) (position: 691)
  • Burdet Thierry : 11:42:45, 71.000 km (6.06 km/h) (position: 702)
  • Djouls : 11:58:35, 71.000 km (5.92 km/h) (position: 787)
  • Isaandreo : 12:00:23, 71.000 km (5.91 km/h) (position: 798)
  • unchercheurenbaskets : 12:01:20, 71.000 km (5.9 km/h) (position: 812)
  • jmerlin : 12:01:54, 71.000 km (5.9 km/h) (position: 815)
  • SevenWil : 12:02:43, 71.000 km (5.89 km/h) (position: 822)
  • lorenzo14 : 12:03:19, 71.000 km (5.88 km/h) (position: 826)
  • RunningMat : 12:12:04, 71.000 km (5.81 km/h) (position: 894)
  • Sébastien ANDREA : 12:13:54, 71.000 km (5.8 km/h) (position: 927)
  • godas : 12:14:24, 71.000 km (5.8 km/h) (position: 931)
  • seb4h : 12:22:07, 71.000 km (5.74 km/h) (position: 968)
  • Tofachille111 : 12:26:28, 71.000 km (5.7 km/h) (position: 1008)
  • An GUIL : 12:30:26, 71.000 km (5.67 km/h) (position: 1024)
  • AdrienArguel : 12:30:59, 71.000 km (5.67 km/h) (position: 1035)
  • Gerald Karsznia : 12:33:01, 71.000 km (5.65 km/h) (position: 1059)
  • brice de nice : 12:38:17, 71.000 km (5.61 km/h) (position: 1083)
  • shadma : 12:47:55, 71.000 km (5.54 km/h) (position: 1148)
  • TOUSSAINT LAURENT : 12:51:43, 71.000 km (5.52 km/h) (position: 1170)
  • charlovincent : 12:55:05, 71.000 km (5.49 km/h) (position: 1200)
  • Alizeyan : 13:06:55, 71.000 km (5.41 km/h) (position: 1255)
  • marcalito : 13:07:00, 71 km (5.41 km/h) (position: 1262)
  • BenoitBul : 13:07:58, 71.000 km (5.4 km/h) (position: 1272)
  • freerunner21 : 13:08:24, 71.000 km (5.4 km/h) (position: 1279)
  • gilles dufloux : 13:09:03, 71.000 km (5.39 km/h) (position: 1294)
  • mightygnou : 13:10:35, 71.000 km (5.38 km/h) (position: 1325)
  • atome89 : 13:11:34, 71.000 km (5.38 km/h) (position: 1337)
  • Olivier31 : 13:15:58, 71.000 km (5.35 km/h) (position: 1355)
  • Titdesainte : 13:16:05, 71.000 km (5.35 km/h) (position: 1356)
  • Fa² : 13:17:47, 71.000 km (5.33 km/h) (position: 1373)
  • desertraileur : 13:19:46, 71.000 km (5.32 km/h) (position: 1381)
  • fabnaf : 13:22:43, 71.000 km (5.3 km/h) (position: 1413)
  • Thomas Lenoir : 13:32:13, 71.000 km (5.24 km/h) (position: 1485)
  • coolguigui : 13:41:58, 71.000 km (5.18 km/h) (position: 1512)
  • divano : 13:48:50, 71.000 km (5.13 km/h) (position: 1538)
  • swloch : 13:51:17, 71.000 km (5.12 km/h) (position: 1557)
  • ArnaudT : 13:51:34, 71.000 km (5.12 km/h) (position: 1560)
  • MC78 : 13:53:10, 71.000 km (5.11 km/h) (position: 1588)
  • pbenayoun : 13:54:39, 71.000 km (5.1 km/h) (position: 1608)
  • PRIEUR Bruno : 13:55:06, 71.000 km (5.1 km/h) (position: 1621)
  • patrice ravel : 14:00:13, 71.000 km (5.07 km/h) (position: 1676)
  • kolin78 : 14:11:29, 71.000 km (5 km/h) (position: 1765)
  • carlier pascal : 14:17:55, 71.000 km (4.96 km/h) (position: 1798)
  • val : 14:21:32, 71 km (4.94 km/h) (position: 1746)
  • Yan79 : 14:22:28, 71.000 km (4.93 km/h) (position: 1831)
  • Lanternerouge : 14:52:11, 71.000 km (4.77 km/h) (position: 1952)
  • Pac : 14:52:39, 71.000 km (4.77 km/h) (position: 1956)
  • Fufanerunner : 15:16:23, 71.000 km (4.64 km/h) (position: 2035)
  • yoyotito : 15:17:37, 71.000 km (4.64 km/h) (position: 2040)
Accueil - Haut de page - Version grand écran